Regional Weather Roundup
Issued by NWS

Home | Current Version | Previous Version | Text Only | Print | Product List | Glossary On
Versions: 1 2 3 4 5 6 7 8 9 10 11 12 13 14 15 16 17 18 19 20 21 22 23 24 25 26 27 28 29 30 31 32 33 34 35 36 37 38 39 40 41 42 43 44 45 46 47 48 49 50
657
ASUS43 KMKX 080711
RWRWI

WISCONSIN REGIONAL WEATHER ROUNDUP
NATIONAL WEATHER SERVICE MILWAUKEE/SULLIVAN WI
100 AM CST THU DEC 08 2016

NOTE: "FAIR" INDICATES FEW OR NO CLOUDS BELOW 12,000 FEET WITH NO
SIGNIFICANT WEATHER AND/OR OBSTRUCTIONS TO VISIBILITY.

WIZ001-002-006>008-014>016-023>028-080800-
NORTHWEST WISCONSIN

CITY           SKY/WX    TMP DP  RH WIND       PRES   REMARKS
SUPERIOR ARPT  LGT SNOW  22  18  85 W8        30.01R WCI  12
ASHLAND        LGT SNOW  19  15  84 W9        29.96R FOG     WCI   8
HAYWARD        LGT SNOW  17  12  80 W9        29.98S WCI   6
SIREN          FLURRIES  17  13  83 W10       30.05S WCI   5
CUMBERLAND     LGT SNOW  14  12  92 W13G18    30.03S WCI   0
RICE LAKE      LGT SNOW  16  11  82 W13       30.06R WCI   2
CHETEK         FLURRIES  15  10  82 W5        30.05S WCI   7
LADYSMITH      FLURRIES  16  11  82 W14       30.02R WCI   1
EAU CLAIRE     LGT SNOW  16  12  84 W13G21    30.08R FOG     WCI   2
MENOMONIE      CLOUDY    17  12  82 SW12G21   30.09S WCI   4
NEW RICHMOND   LGT SNOW  15  10  80 W12G18    30.10S WCI   2
OSCEOLA        FLURRIES  16  11  81 W10G17    30.14R WCI   4
$$

WIZ003>005-009-010-017-018-080800-
NORTH CENTRAL WISCONSIN

CITY           SKY/WX    TMP DP  RH WIND       PRES   REMARKS
MANITOWISH WTR LGT SNOW  14  12  89 W12G17    29.88S WCI   1
ARBOR VITAE    FLURRIES  17  12  82 W10       29.90R WCI   4
WOODRUFF       FLURRIES  17  12  82 W10       29.90R WCI   4
RHINELANDER    CLOUDY    14   9  80 W14       29.91S WCI  -1
EAGLE RIVER    FLURRIES  15   9  77 W12G18    29.88S WCI   1
LAND O LAKES   FLURRIES  16  11  82 W8        29.88R WCI   5
PHILLIPS       LGT SNOW  13  10  87 W8        29.93S WCI   1
TOMAHAWK       LGT SNOW  13   8  83 W10       29.94S WCI  -1
MEDFORD        LGT SNOW  13   9  83 W14       29.97S WCI  -2
MERRILL        FLURRIES  15  10  80 W12       29.97S WCI   1
$$

WIZ029-030-035-036-043>047-080800-
CENTRAL WISCONSIN

CITY           SKY/WX    TMP DP  RH WIND       PRES   REMARKS
WAUSAU         CLOUDY    15   8  73 W15       29.98S WCI   0
MOSINEE        FLURRIES  16  10  79 W14G22    30.00S WCI   1
MARSHFIELD     LGT SNOW  15   9  76 W15G25    30.01R WCI   0
STEVENS POINT  LGT SNOW  16  10  77 W16G23    30.02R WCI   0
WAUPACA        FLURRIES  22  14  72 W9        30.03S WCI  12
WAUTOMA        FLURRIES  20  13  74 W16G23    30.06R WCI   6
WISC RAPIDS    CLOUDY    18  11  74 W15G22    30.05R WCI   4
CAMP DOUGLAS   FLURRIES  18  11  74 W15       30.08R WCI   3
$$

WIZ011>013-019>022-031-037>040-048>050-080800-
NORTHEAST WISCONSIN

CITY           SKY/WX    TMP DP  RH WIND       PRES   REMARKS
ANTIGO         FLURRIES  14   9  79 W13G26    29.94R WCI   0
SHAWANO        CLOUDY    22  12  65 W10G22    30.01R WCI  11
OCONTO         CLOUDY    21  11  64 W17G26    29.98S WCI   7
STURGEON BAY   FLURRIES  22  13  68 W16G24    29.96R WCI   8
GREEN BAY      CLOUDY    23  14  68 W15G22    30.01R WCI  10
MANITOWOC      FLURRIES  22  14  71 W14G22    30.02S WCI   9
APPLETON       FLURRIES  21  12  68 W21       30.00S WCI   6
CLINTONVILLE   FLURRIES  21  14  73 W13       30.01R WCI   9
OSHKOSH        CLOUDY    21  12  68 W12G22    30.03S WCI   9
$$

WIZ032>034-041-042-053>061-080800-
SOUTHWEST WISCONSIN

CITY           SKY/WX    TMP DP  RH WIND       PRES   REMARKS
LA CROSSE      CLOUDY    18   8  65 W17       30.16S WCI   3
SPARTA         FLURRIES  17  12  78 W9        30.12S WCI   6
VIROQUA        CLOUDY    15   9  76 W13G20    30.10S WCI   1
BOSCOBEL       CLOUDY    19   8  62 W12G20    30.19S WCI   7
PRAIRIE DU CHI CLOUDY    16   8  70 W13G22    30.21S WCI   3
PLATTEVILLE    CLOUDY    18  11  75 W18G26    30.17R WCI   2
$$

WIZ056-057-062-063-064-067-068-080800-
SOUTH CENTRAL WISCONSIN

CITY           SKY/WX    TMP DP  RH WIND       PRES   REMARKS
REEDSBURG      CLOUDY    18   9  69 W17       30.10S WCI   2
BARABOO/DELLS  CLOUDY    18   9  68 W12G22    30.09S WCI   6
LONE ROCK      CLOUDY    20   9  62 W15       30.15R WCI   6
MINERAL POINT  FLURRIES  19  12  73 W18G24    30.12S WCI   4
MADISON        CLOUDY    20  11  68 W12G18    30.10S WCI   8
MIDDLETON      CLOUDY    21  12  68 W17G23    30.11R WCI   7
WATERTOWN      CLOUDY    20  12  71 W15G21    30.09S WCI   7
MONROE         LGT SNOW  21  16  79 W17G25    30.11S WCI   7
JANESVILLE     CLOUDY    25  16  68 W20G25    30.11F WCI  11
$$

WIZ051-052-058>065-066-070>072-080800-
SOUTHEAST WISCONSIN

CITY           SKY/WX    TMP DP  RH WIND       PRES   REMARKS
MILWAUKEE      FLURRIES  24  13  62 W9        30.08F WCI  14
WAUKESHA       CLOUDY    21  12  68 W20       30.08S WCI   6
MILWAUKEE/TIMM FLURRIES  21  12  68 W12G17    30.08F WCI   9
RACINE         CLOUDY    23  13  65 W17G23    30.10F WCI   9
BURLINGTON     CLOUDY    22  13  70 W13G22    30.10S WCI  10
KENOSHA        CLOUDY    24  13  62 W20G30    30.09F WCI  10
FOND DU LAC    CLOUDY    21  11  65 W12G17    30.05S WCI   9
SHEBOYGAN      CLOUDY    21  12  68 W21G28    30.04S WCI   5
WEST BEND      CLOUDY    21  14  73 W16G23    30.05S WCI   7
JUNEAU         CLOUDY    19  11  68 W15G21    30.08S WCI   5
$$

LSZ147-162-080800-
LAKE SUPERIOR

STATION/POSITION TIME  TEMP    WIND        PRES    WAVE
                       AIR SEA DIR/SP/G            HT/PER
                 (UTC) (F)     (DEG/KT/KT) (MB)    (FT/S)
DEVILS ISLAND    0500   26     290/ 19/ 24 1013.4R
PORT WING        0540   26     280/ 21/ 26 1014.2R
SAXON HARBOR     0530   19     220/  8/ 14 1013.5S
$$

LMZ867-665-643>646-080800-
LAKE MICHIGAN

STATION/POSITION TIME  TEMP    WIND        PRES    WAVE
                       AIR SEA DIR/SP/G            HT/PER
                 (UTC) (F)     (DEG/KT/KT) (MB)    (FT/S)
CHAMBERS ISLAND  0540   23     230/  9/ 19 1013.2F
NORTHPORT PIER   0540   24     260/  8/ 16 1013.2S
SISTER BAY       0651   25     270/ 22/ 26   N/A
KEWAUNEE LAKESHO 0642          320/ 14/ 28 1015.0R
SHEBOYGAN LAKESH 0500   22     280/ 15/ 18 1018.1R
PORT WASHINGTON  0530   22     290/ 12/ 18 1019.3S
MILWAUKEE LAKESH 0630   23     280/ 13/ 17   N/A
KENOSHA   LAKESH 0500   23     280/ 17/ 24 1019.3
$$

TC  - TEMPERATURE IN CELSIUS
VSB - VISIBILITY IN STATUTE MILES
WCI - WIND CHILL INDEX
HX  - HEAT INDEX





USA.gov is the U.S. government's official web portal to all federal, state and local government web resources and services.